Regional Weather Roundup
Issued by NWS

Home | Current Version | Previous Version | Text Only | Print | Product List | Glossary Off
Versions: 1 2 3 4 5 6 7 8 9 10 11 12 13 14 15 16 17 18 19 20 21 22 23 24 25 26 27 28 29 30 31 32 33 34 35 36 37 38 39 40 41 42 43 44 45 46 47 48 49 50

000
ASUS43 KBIS 270331
RWRND
NORTH DAKOTA REGIONAL WEATHER ROUNDUP
NATIONAL WEATHER SERVICE EASTERN NORTH DAKOTA/GRAND FORKS ND
1000 PM CDT THU APR 26 2018

  NOTE: "FAIR" INDICATES FEW OR NO CLOUDS BELOW 12,000 FEET WITH NO
  SIGNIFICANT WEATHER AND/OR OBSTRUCTIONS TO VISIBILITY.

NDZ001>003-009>011-017-270400-
...NORTHWEST NORTH DAKOTA...

CITY           SKY/WX    TMP DP  RH WIND       PRES   REMARKS
WILLISTON      FAIR      58  32  37 W10       29.94S
MINOT          FAIR      61  29  29 W15       29.87S
MINOT AFB      FAIR      53  31  44 W10       29.86R
$$

NDZ018>021-031>035-040>046-270400-
...SOUTHWEST NORTH DAKOTA...

CITY           SKY/WX    TMP DP  RH WIND       PRES   REMARKS
BISMARCK       FAIR      56  30  37 W7        29.95S
DICKINSON      FAIR      46  27  47 W8        29.99R
GARRISON         N/A     52  30  43 W12       29.91S
HETTINGER      FAIR      44  32  62 W10       30.05R
$$

NDZ004>008-012>016-024-026-027-054-270400-
...NORTHEAST NORTH DAKOTA...

CITY           SKY/WX    TMP DP  RH WIND       PRES   REMARKS
GRAND FORKS    MOCLDY    49  39  68 S13       29.79F
GRAND FORKS AF MOCLDY    54  32  44 SW12      29.79F
DEVILS LAKE    CLOUDY    52  33  48 W10       29.82F
$$

NDZ022-023-025-028>030-036>039-047>053-270400-
...SOUTHEAST NORTH DAKOTA...

CITY           SKY/WX    TMP DP  RH WIND       PRES   REMARKS
JAMESTOWN      CLOUDY    56  29  35 SW10      29.88F
FARGO          FAIR      49  31  49 S10       29.88F
WAHPETON       FAIR      45  32  61 S9        29.93F
$$



USA.gov is the U.S. government's official web portal to all federal, state and local government web resources and services.